User: anonymous   Login
Location: *
(51.5000°N, 0.1100°W)
Time: 03:20:09
(UTC+00:00)
Language:

Cosmos 1758 - Orbit

View from above orbital plane
View from above orbital plane
View from above satellite
View from above satellite

Ground track
Ground track

The orbit data is extracted from the following two-line orbital elements,

1 16791U 86046A   24194.60479563  .00006051  00000-0  33145-3 0  9999
2 16791  82.4654  28.3615 0017274 283.3462  76.5844 15.13910575 74135
Epoch (UTC): 12 July 2024 14:30:54
Eccentricity: 0.0017274
inclination: 82.4654°
perigee height: 512 km
apogee height: 536 km
right ascension of ascending node: 28.3615°
argument of perigee: 283.3462°
revolutions per day: 15.13910575
mean anomaly at epoch: 76.5844°
orbit number at epoch: 7413

The dashed part of the orbit path shows where the satellite is in the earth's shadow,  

DLR